Location: Lake Arresoe
(56.0000°N, 12.5000°E)
Time: 06:34:49
(UTC+02:00)

Cosmos 1674 - Pass Details

Date: 28 July 2021
Orbit: 491 x 516 km, 82.5° (Epoch: 19 September)

Event Time Altitude Azimuth Distance (km) Brightness Sun altitude
Rises 03:26:16 0° 350° (N) 2,654 7.2 -10.2°
Reaches altitude 10° 03:28:28 10° 356° (N) 1,762 6.3 -10.0°
Maximum altitude 03:32:14 50° 73° (ENE) 667 3.6 -9.8°
Drops below altitude 10° 03:35:59 10° 150° (SSE) 1,746 5.1 -9.5°
Sets 03:38:09 0° 156° (SSE) 2,627 6.0 -9.3°
